Lubbock, TX

7:16 PM CDT on July 25, 2017 (GMT -0500)
Lubbock International

Weather History for KLBB - December, 2012

Change the Weather History Date:

Thursday, December 6, 2012

  Actual Average Record
Temperature  
Mean Temperature 57 °F 42 °F  
Max Temperature 74 °F 56 °F 83 °F (1939)
Min Temperature 40 °F 28 °F 1 °F (1950)
Degree Days  
Heating Degree Days 8 23  
Month to date heating degree days 53 134  
Since 1 July heating degree days 574 776  
Cooling Degree Days 0 0  
Month to date cooling degree days 0 0  
Year to date cooling degree days 2322 1804  
Growing Degree Days 8 (Base 50)    
Moisture  
Dew Point 28 °F    
Average Humidity 40    
Maximum Humidity 62    
Minimum Humidity 17    
Precipitation  
Precipitation 0.00 in 0.02 in 0.93 in (1942)
Month to date precipitation 0.00 0.14  
Year to date precipitation 10.75 18.50  
Snow  
Snow 0.00 in 0.00 in 9.50 in (1942)
Month to date snowfall 0.0 0.3  
Since 1 July snowfall 0.0 1.2  
Snow Depth 0.00 in    
Sea Level Pressure  
Sea Level Pressure 29.80 in    
Wind  
Wind Speed 11 mph (NW)    
Max Wind Speed 24 mph    
Max Gust Speed 29 mph    
Visibility 10 miles    
Events      
T = Trace of Precipitation, MM = Missing Value Source: NWS Daily Summary

Daily Weather History Graph

Daily Weather History Graph

Search for Another Location

Airport or City:

Trip Planner

Search our weather history database for the weather conditions in past years. The results will help you decide how hot, cold, wet, or windy it might be!

Date:

Astronomy

Dec. 06, 2012 Rise Set
Actual Time 7:38 AM CST 5:38 PM CST
Civil Twilight 7:10 AM CST 6:06 PM CST
Nautical Twilight 6:39 AM CST 6:37 PM CST
Astronomical Twilight 6:09 AM CST 7:07 PM CST
Moon 12:15 AM CST (12/6) 12:48 PM CST (12/6)
Length of Visible Light 10h 55m
Length of Day
10h 00m
Waning Gibbous, 49% of the Moon is Illuminated
Dec 6
Waning Gibbous
Dec 13
New
Dec 19
First Quarter
Dec 28
Full
Jan 4
Last Quarter

Hourly Weather History & Observations

Time (CST) Temp. Windchill Dew Point Humidity Pressure Visibility Wind Dir Wind Speed Gust Speed Precip Events Conditions
12:53 AM 54.0 °F - 30.0 °F 40% 29.84 in 10.0 mi SW 16.1 mph - N/A   Scattered Clouds
1:53 AM 51.1 °F - 30.0 °F 44% 29.83 in 10.0 mi SW 17.3 mph - N/A   Scattered Clouds
2:53 AM 48.0 °F - 30.0 °F 50% 29.82 in 10.0 mi SW 10.4 mph - N/A   Mostly Cloudy
3:53 AM 42.1 °F 36.1 °F 28.0 °F 58% 29.82 in 10.0 mi WSW 10.4 mph - N/A   Mostly Cloudy
4:53 AM 41.0 °F 36.4 °F 28.0 °F 60% 29.82 in 10.0 mi SW 6.9 mph - N/A   Mostly Cloudy
5:53 AM 44.1 °F 39.5 °F 30.0 °F 58% 29.79 in 10.0 mi WSW 8.1 mph - N/A   Mostly Cloudy
6:53 AM 43.0 °F 38.8 °F 30.0 °F 60% 29.81 in 10.0 mi WSW 6.9 mph - N/A   Scattered Clouds
7:53 AM 44.1 °F 38.6 °F 28.0 °F 53% 29.81 in 10.0 mi West 10.4 mph - N/A   Scattered Clouds
8:53 AM 45.0 °F 41.2 °F 28.9 °F 53% 29.83 in 10.0 mi West 6.9 mph - N/A   Scattered Clouds
9:53 AM 60.1 °F - 28.0 °F 30% 29.79 in 10.0 mi WNW 17.3 mph - N/A   Scattered Clouds
10:53 AM 66.0 °F - 24.1 °F 20% 29.78 in 10.0 mi NW 16.1 mph - N/A   Scattered Clouds
11:53 AM 70.0 °F - 25.0 °F 18% 29.75 in 10.0 mi WNW 12.7 mph - N/A   Mostly Cloudy
12:53 PM 72.0 °F - 26.1 °F 18% 29.73 in 10.0 mi NNW 12.7 mph - N/A   Mostly Cloudy
1:53 PM 73.0 °F - 27.0 °F 18% 29.72 in 10.0 mi NNW 11.5 mph - N/A   Mostly Cloudy
2:53 PM 73.0 °F - 28.0 °F 19% 29.72 in 10.0 mi NNW 10.4 mph - N/A   Mostly Cloudy
3:53 PM 72.0 °F - 28.0 °F 20% 29.74 in 10.0 mi NNW 12.7 mph - N/A   Mostly Cloudy
4:53 PM 69.1 °F - 28.9 °F 22% 29.77 in 10.0 mi North 5.8 mph - N/A   Mostly Cloudy
5:53 PM 61.0 °F - 28.9 °F 30% 29.79 in 10.0 mi NNW 6.9 mph - N/A   Mostly Cloudy
6:53 PM 57.0 °F - 28.0 °F 33% 29.82 in 10.0 mi NNE 9.2 mph - N/A   Mostly Cloudy
7:53 PM 55.0 °F - 30.0 °F 38% 29.83 in 10.0 mi NE 11.5 mph - N/A   Mostly Cloudy
8:53 PM 52.0 °F - 28.9 °F 41% 29.85 in 10.0 mi ENE 10.4 mph - N/A   Mostly Cloudy
9:53 PM 50.0 °F - 28.0 °F 43% 29.83 in 10.0 mi NE 10.4 mph - N/A   Mostly Cloudy
10:53 PM 46.9 °F - 27.0 °F 46% 29.82 in 10.0 mi NE 9.2 mph - N/A   Mostly Cloudy
11:53 PM 45.0 °F 40.1 °F 26.1 °F 48% 29.82 in 10.0 mi NE 9.2 mph - N/A   Mostly Cloudy